CZ-4C DEB, 44618

Orbit data source: Space-Track

CZ-4C DEB, 44618 is space debris in LEO originally from a launch on Tue, 10 Apr 2018 UTC launched from the Taiyaun Space Center, China (TSC). Debris objects in space refer to the collection of defunct objects orbiting the Earth. Examples of debris include non-operational satellites, rocket bodies, and fragments generated from explosions, collisions, or faulty payload assembly.

Loading next visibility...
Identifier
44618, 2018-034K
Orbit
LEO
Country
Flag of CNCN / PRC
Related business
Manufacturer
Unknown
Mission
Spacecraft
Bus & Motor
Unknown
Mass
Unknown
Launch date (UTC)
2018-04-10 (8 years ago)
Launch vehicle
Unknown
Launch site
Taiyaun Space Center, China (TSC)
Object type
Payload
Rocket body
Debris
Shape & HBR
Unknown shape, 0.1 m
Radar Cross Section
Small (<0.1 m²)

Expand to show TLE details & history
Last TLE update: 1 day ago

TLE from 1 day ago
0 CZ-4C DEB
1 44618U 18034K   25307.44441965 -.00000049  00000-0  60380-4 0  9998
2 44618  63.4677  10.0194 0237730 346.8091  12.6786 13.42032838346553
Epoch: 2025-11-03T10:39Z
TLE epoch observation values (Epoch: 2025-11-03T10:39:57.857Z)
Latitude
-0°
Longitude
167.08262°
Altitude
930.199 km
Speed
7.472 km/s
True Right ascension
00h 40m 04s
True Declination
0° 00' 00"
Sunlit
Object was in full shadow at epoch
Visualization orbit readout
Latitude
Unknown
Longitude
Unknown
Altitude
Unknown
Speed
Unknown
Apparent Right ascension
Unknown
Apparent Declination
Unknown
Sunlit
N/A
Visualization observer readout
Local Sidereal Time
15:39:48
Azimuth
Unknown
Elevation
Unknown
Doppler factor
Unknown
Orbital elements
Apogee altitude
1,278.329 km
Perigee altitude
922.748 km
Semi-major axis
7,478.675 km
Eccentricity
0.02377
Inclination
63.4677°
RAAN
10.0194°
Arg. of periapsis
346.8091°
True anomaly
13.29433°
Mean anomaly
12.6786°
Eccentric anomaly
12.98465°
Mean motion
3.35588 °/min
Orbital period
107.27 mins
BSTAR
0.00006038
Loading maneuver chart data...
Computing Atmospheric mass density...
Loading historical data...
Loading historical data...
Loading historical data...
Loading historical data...
Loading historical data...
Loading historical data...
Loading historical data...

Documentation

Showing up to 5 results
|